Location: Les Jeannots
(43.2262°N, 5.5774°E)
Time: 17:44:45
(UTC+00:00)

Cosmos 2074 Rocket - Pass Details

Date: 05 July 2020
Orbit: 967 x 986 km, 82.9° (Epoch: 12 August)

Event Time Altitude Azimuth Distance (km) Brightness Sun altitude
Exits shadow 21:29:12 26° 163° (SSE) 1,814 4.8 -17.3°
Maximum altitude 21:32:44 60° 93° (E) 1,103 4.1 -17.7°
Drops below altitude 10° 21:38:50 10° 15° (NNE) 2,722 7.0 -18.2°
Sets 21:41:23 0° 12° (NNE) 3,671 7.8 -18.5°
